Time,TemperatureF,DewpointF,PressureIn,WindDirection,WindDirectionDegrees,WindSpeedMPH,WindSpeedGustMPH,Humidity,HourlyPrecipIn,Conditions,Clouds,dailyrainin,SoftwareType,DateUTC
2013-03-01 00:12:00,45.1,37.0,28.93,NNE,22,0.0,0.0,73,0.00,,,0.00,open2300-1.11,2013-02-28 22:12:00,
2013-03-01 00:17:00,45.1,37.0,28.93,NNE,22,0.0,0.0,73,0.00,,,0.00,open2300-1.11,2013-02-28 22:17:00,
2013-03-01 00:23:00,45.1,37.0,28.93,NNE,22,0.0,0.0,73,0.00,,,0.00,open2300-1.11,2013-02-28 22:23:00,
2013-03-01 00:37:00,45.0,36.8,28.93,NNE,22,0.0,0.0,73,0.00,,,0.00,open2300-1.11,2013-02-28 22:37:00,
2013-03-01 00:42:00,45.0,36.5,28.93,NNE,22,0.0,0.0,72,0.00,,,0.00,open2300-1.11,2013-02-28 22:42:00,
2013-03-01 00:57:00,45.0,36.5,28.93,NNE,22,0.0,0.0,72,0.00,,,0.00,open2300-1.11,2013-02-28 22:57:00,
2013-03-01 01:12:00,45.0,36.8,28.92,NNE,22,0.0,0.0,73,0.00,,,0.00,open2300-1.11,2013-02-28 23:12:00,
2013-03-01 01:27:00,44.8,36.6,28.92,NNE,22,0.0,0.0,73,0.00,,,0.00,open2300-1.11,2013-02-28 23:27:00,
2013-03-01 14:57:00,56.1,39.2,28.79,NNW,337,0.0,0.0,53,0.00,,,0.00,open2300-1.11,2013-03-01 12:57:00,
2013-03-01 15:12:00,56.3,39.8,28.79,North,0,0.0,0.0,54,0.00,,,0.00,open2300-1.11,2013-03-01 13:12:00,
2013-03-01 15:47:00,55.2,39.7,28.78,NNE,22,0.0,0.0,56,0.00,,,0.00,open2300-1.11,2013-03-01 13:47:00,
2013-03-01 15:57:00,55.0,39.5,28.78,NNE,22,0.0,0.0,56,0.00,,,0.00,open2300-1.11,2013-03-01 13:57:00,
2013-03-01 16:07:00,54.9,39.8,28.78,NNE,22,0.0,0.0,57,0.00,,,0.00,open2300-1.11,2013-03-01 14:07:00,
2013-03-01 16:17:00,54.9,39.8,28.78,NNE,22,0.0,0.0,57,0.00,,,0.00,open2300-1.11,2013-03-01 14:17:00,
2013-03-01 16:22:00,55.2,40.2,28.78,NNE,22,0.0,0.0,57,0.00,,,0.00,open2300-1.11,2013-03-01 14:22:00,
2013-03-01 16:27:00,55.4,40.3,28.77,NNE,22,0.0,0.0,57,0.00,,,0.00,open2300-1.11,2013-03-01 14:27:00,
2013-03-01 16:32:00,55.6,40.5,28.78,NNE,22,0.0,0.0,57,0.00,,,0.00,open2300-1.11,2013-03-01 14:32:00,
2013-03-01 16:37:00,55.9,40.9,28.77,NNE,22,0.0,0.0,57,0.00,,,0.00,open2300-1.11,2013-03-01 14:37:00,
2013-03-01 16:47:00,55.9,40.9,28.77,NNE,22,0.0,0.0,57,0.00,,,0.00,open2300-1.11,2013-03-01 14:47:00,
2013-03-01 16:52:00,56.1,41.0,28.77,NNE,22,0.0,0.0,57,0.00,,,0.00,open2300-1.11,2013-03-01 14:52:00,
2013-03-01 16:57:00,56.1,41.0,28.77,NNE,22,0.0,0.0,57,0.00,,,0.00,open2300-1.11,2013-03-01 14:57:00,
2013-03-01 17:02:00,56.1,40.6,28.77,NNE,22,0.0,0.0,56,0.00,,,0.00,open2300-1.11,2013-03-01 15:02:00,
2013-03-01 17:07:00,55.9,40.9,28.77,NNE,22,0.0,0.0,57,0.00,,,0.00,open2300-1.11,2013-03-01 15:07:00,
2013-03-01 17:17:00,56.1,41.0,28.77,NNE,22,0.0,0.0,57,0.00,,,0.00,open2300-1.11,2013-03-01 15:17:00,
2013-03-01 17:27:00,56.5,40.9,28.77,NNE,22,0.0,0.0,56,0.00,,,0.00,open2300-1.11,2013-03-01 15:27:00,
2013-03-01 17:32:00,56.5,40.9,28.77,NNE,22,0.0,0.0,56,0.00,,,0.00,open2300-1.11,2013-03-01 15:32:00,
2013-03-01 17:37:00,56.1,40.6,28.77,NNE,22,0.0,0.0,56,0.00,,,0.00,open2300-1.11,2013-03-01 15:37:00,
2013-03-01 17:57:00,55.2,40.2,28.77,NNE,22,0.0,0.0,57,0.00,,,0.00,open2300-1.11,2013-03-01 15:57:00,
2013-03-01 18:02:00,55.0,40.0,28.77,NNE,22,0.0,0.0,57,0.00,,,0.00,open2300-1.11,2013-03-01 16:02:00,
2013-03-01 18:07:00,54.3,39.3,28.77,NNE,22,0.0,0.0,57,0.00,,,0.00,open2300-1.11,2013-03-01 16:07:00,
2013-03-01 18:12:00,54.1,39.7,28.77,NNE,22,0.0,0.0,58,0.00,,,0.00,open2300-1.11,2013-03-01 16:12:00,
2013-03-01 18:17:00,53.8,39.3,28.77,NNE,22,0.0,0.0,58,0.00,,,0.00,open2300-1.11,2013-03-01 16:17:00,
2013-03-01 18:32:00,52.3,38.4,28.77,NNE,22,0.0,0.0,59,0.00,,,0.00,open2300-1.11,2013-03-01 16:32:00,
2013-03-01 18:52:00,50.7,37.7,28.77,NNE,22,0.0,0.0,61,0.00,,,0.00,open2300-1.11,2013-03-01 16:52:00,
2013-03-01 18:57:00,50.5,38.0,28.77,NNE,22,0.0,0.0,62,0.00,,,0.00,open2300-1.11,2013-03-01 16:57:00,
2013-03-01 19:02:00,50.4,37.8,28.77,NNE,22,0.0,0.0,62,0.00,,,0.00,open2300-1.11,2013-03-01 17:02:00,
2013-03-01 19:22:00,49.8,37.7,28.78,NNE,22,0.0,0.0,63,0.00,,,0.00,open2300-1.11,2013-03-01 17:22:00,
2013-03-01 19:27:00,49.8,38.1,28.78,NNE,22,0.0,0.0,64,0.00,,,0.00,open2300-1.11,2013-03-01 17:27:00,
2013-03-01 19:38:00,49.6,37.9,28.79,NNE,22,0.0,0.0,64,0.00,,,0.00,open2300-1.11,2013-03-01 17:38:00,
2013-03-01 20:27:00,48.9,38.0,28.79,NNE,22,0.0,0.0,66,0.00,,,0.00,open2300-1.11,2013-03-01 18:27:00,
2013-03-01 20:43:00,48.7,37.8,28.79,NNE,22,0.0,0.0,66,0.00,,,0.00,open2300-1.11,2013-03-01 18:43:00,
2013-03-01 20:57:00,48.7,38.2,28.79,NNE,22,0.0,0.0,67,0.00,,,0.00,open2300-1.11,2013-03-01 18:57:00,
2013-03-01 21:42:00,48.0,37.9,28.78,NNE,22,0.0,0.0,68,0.00,,,0.00,open2300-1.11,2013-03-01 19:42:00,
2013-03-01 21:57:00,48.0,38.3,28.77,NNE,22,0.0,0.0,69,0.00,,,0.00,open2300-1.11,2013-03-01 19:57:00,
2013-03-01 22:27:00,47.5,38.2,28.78,NNE,22,0.0,0.0,70,0.00,,,0.00,open2300-1.11,2013-03-01 20:27:00,
2013-03-01 22:47:00,47.3,38.0,28.77,NNE,22,0.0,0.0,70,0.00,,,0.00,open2300-1.11,2013-03-01 20:47:00,
2013-03-01 23:02:00,47.1,37.9,28.77,NNE,22,0.0,0.0,70,0.00,,,0.00,open2300-1.11,2013-03-01 21:02:00,
2013-03-01 23:52:00,46.6,37.7,28.76,NNE,22,0.0,0.0,71,0.00,,,0.00,open2300-1.11,2013-03-01 21:52:00,
2013-03-01 23:57:00,46.6,37.7,28.76,NNE,22,0.0,0.0,71,0.00,,,0.00,open2300-1.11,2013-03-01 21:57:00,